RH
21 22 22 18 18 20 18 23 22 23 22 23 25 27 22 22 22 21 24 27 29 30 33 37 48 67 75 82 84 96 96 97 87 84 78 75 77 72 71 69 71 73 79 80
28 25 24 24 22 21 22 22 26 26 22 25 25 25 23 24 22 23 29 30 26 30 31 30 38 59 72 78 79 77 82 81 65 63 62 58 54 53 55 56 54 51 46 46
28 28 25 25 24 22 23 25 28 28 27 25 24 29 27 24 22 22 25 26 30 34 41 50 54 60 64 65 55 53 54 56 60 56 47 44 40 45 48 46 42 39 36 35
26 27 28 27 26 22 29 29 31 31 30 30 32 36 40 33 28 32 35 41 47 56 63 69 68 56 48 42 48 55 53 45 43 41 36 35 38 38 36 36 37 43 46 46
28 24 24 23 24 22 29 34 32 32 31 29 35 36 41 46 44 40 46 57 68 72 65 60 56 42 43 43 38 46 48 49 45 40 43 44 44 39 37 41 46 55 62 56
25 28 26 27 33 35 31 27 29 37 44 51 45 41 46 39 35 46 58 64 65 64 66 65 67 46 66 66 69 71 60 56 53 60 62 67 66 41 43 48 54 57 48 38
34 33 31 30 37 38 36 38 47 60 67 68 55 56 48 46 45 58 56 58 60 62 66 66 62 68 72 79 81 73 73 71 74 84 83 73 52 49 51 49 42 33 21 17
35 34 35 34 38 41 40 42 46 58 79 62 53 58 52 48 54 60 60 61 62 70 69 68 70 87 71 69 76 84 89 83 89 90 52 45 46 46 38 30 19 12 11 15
41 44 34 26 45 43 43 45 36 38 60 56 51 58 53 51 55 57 60 61 68 70 72 80 82 81 70 68 80 88 92 95 95 62 71 46 39 31 20 12 10 9 10 22
41 43 36 37 34 42 44 43 45 44 57 56 55 62 52 52 55 57 59 64 70 72 66 66 69 69 70 77 89 98 97 97 75 83 52 40 27 15 12 11 14 18 21 38
44 41 41 38 41 39 39 38 34 37 48 67 79 52 45 55 57 59 63 70 70 70 69 69 69 72 79 88 95 95 97 84 94 51 41 24 14 13 14 21 30 40 56 74
45 42 40 42 39 28 34 34 33 19 34 50 53 39 38 49 50 66 73 74 71 71 71 72 77 82 89 95 98 96 91 97 59 44 26 15 14 18 33 49 48 40 52 27
46 41 42 41 35 30 32 28 28 30 32 36 56 28 30 35 45 60 72 72 72 74 76 79 84 88 93 96 91 96 86 60 47 27 15 15 19 26 20 16 10 10 12 15
38 40 35 33 26 27 33 31 29 31 39 33 28 24 30 38 45 56 67 68 73 78 81 85 89 92 96 97 98 72 68 54 28 16 14 12 11 8 7 7 9 12 15 22
29 32 34 32 26 26 24 26 24 29 29 34 20 25 28 37 50 57 62 68 73 76 80 85 90 97 97 96 93 75 54 30 17 12 10 8 7 6 6 8 10 13 28 31
28 29 26 34 33 30 26 25 20 18 23 24 23 21 24 33 40 47 51 60 70 76 82 89 99 98 98 92 78 62 37 19 12 10 9 8 7 6 8 12 16 24 31 37
20 19 23 25 23 28 29 13 12 8 8 19 23 21 35 37 43 48 55 63 78 84 89 94 97 89 81 80 68 42 22 12 11 9 8 7 7 7 13 20 27 30 30 42
24 17 18 20 17 35 13 12 11 11 14 19 25 29 37 43 52 56 61 70 80 88 93 84 77 83 81 71 50 24 12 11 10 9 8 7 8 11 19 24 30 36 32 47
42 30 22 21 23 18 13 12 10 12 16 25 33 33 35 42 52 52 58 76 89 92 84 87 93 85 75 55 26 13 12 11 10 9 9 9 10 14 21 28 34 39 40 54
45 46 39 31 27 45 14 11 13 17 28 23 27 30 30 43 52 54 76 87 96 89 94 97 96 82 61 30 13 13 12 11 10 10 11 12 13 16 25 31 39 46 55 64
30 27 30 39 44 28 16 16 19 35 22 27 27 28 23 36 59 70 78 84 88 92 96 94 90 67 33 15 13 13 12 12 11 12 14 16 17 18 30 32 41 54 67 56
34 28 26 37 57 42 18 22 25 24 30 30 36 38 38 49 80 83 88 87 98 98 95 95 79 36 16 14 14 14 13 12 13 16 18 21 21 22 35 35 46 65 68 30
38 29 28 25 19 20 25 28 32 35 42 42 46 48 56 70 83 90 91 99 98 96 96 89 37 17 16 15 14 14 14 14 16 18 20 22 27 27 39 38 54 70 52 19
23 22 27 27 21 24 30 36 41 49 56 64 69 76 74 92 87 92 92 99 97 96 95 40 19 18 18 16 15 15 15 17 20 22 24 27 32 31 44 45 65 72 37 20
30 28 30 32 32 35 35 35 36 39 43 52 77 81 81 94 99 100 100 97 96 93 44 22 21 21 18 17 16 16 17 19 23 25 28 36 38 37 54 56 74 69 26 20
32 36 41 41 40 44 43 45 41 40 43 54 65 78 100 98 98 98 97 95 94 74 34 25 23 19 17 15 14 16 19 21 27 32 37 41 43 45 66 76 86 60 23 20
Wind_Speed
9 8 9 10 11 6 5 6 8 10 13 12 14 11 12 13 21 18 16 17 18 17 18 20 21 22 21 21 19 16 21 24 13 8 14 16 18 19 21 24 27 29 31 33
10 11 8 9 5 4 3 6 5 9 12 13 14 13 14 14 22 21 20 20 22 22 23 23 21 16 11 12 13 17 18 20 12 10 13 16 20 21 22 24 26 30 34 37
8 7 5 2 2 2 4 9 13 11 11 8 9 10 11 17 19 19 21 22 21 16 13 9 8 9 11 11 11 10 11 12 15 16 15 17 20 21 23 26 30 33 35 36
7 5 4 4 4 3 8 9 6 6 5 3 9 5 10 15 20 19 18 15 12 8 6 5 7 5 5 5 7 9 11 13 14 14 19 26 32 34 35 36 36 39 42 45
8 6 5 5 5 5 6 8 8 5 5 5 10 5 11 16 18 19 17 13 10 8 6 5 5 5 1 7 6 7 15 20 21 23 29 35 39 42 41 40 41 43 44 44
8 8 6 6 7 7 7 8 7 6 4 2 7 11 10 19 22 22 19 14 11 11 9 13 12 11 6 8 15 25 23 24 26 29 35 38 42 42 42 42 42 42 43 44
9 6 7 9 9 5 4 7 0 1 0 4 5 7 12 12 21 22 19 16 15 14 11 5 10 15 20 29 21 22 23 26 29 31 36 41 43 41 42 43 43 43 44 44
9 4 6 7 10 5 5 7 4 4 3 3 3 5 5 8 22 17 18 15 17 14 10 13 22 27 20 20 20 23 24 29 30 34 40 42 42 42 43 43 43 45 47 47
8 6 7 7 13 8 5 4 4 2 0 2 3 6 8 7 20 18 23 23 19 14 18 25 27 21 21 24 27 27 28 31 33 37 45 43 43 43 43 44 46 46 47 49
7 6 8 6 6 8 8 7 2 2 2 3 4 7 11 9 16 23 24 22 17 19 19 20 17 22 23 29 28 29 32 34 35 42 43 42 41 42 44 45 46 49 51 52
12 10 9 8 6 7 8 5 3 3 2 4 1 6 8 10 11 12 18 18 19 19 18 21 22 23 28 29 30 32 32 34 39 39 40 39 41 43 44 47 51 53 55 54
14 9 9 13 10 10 9 7 7 3 4 5 2 8 8 9 11 13 19 20 21 22 23 23 24 27 30 31 31 32 37 40 38 39 39 41 43 44 46 49 52 55 53 51
14 7 8 5 9 11 11 10 10 8 6 9 3 5 6 8 12 19 26 24 25 24 23 24 26 29 31 32 32 37 39 35 37 39 40 42 43 46 49 51 51 49 49 48
13 12 11 14 5 8 12 15 14 13 8 8 19 22 21 19 15 18 22 23 24 24 25 27 29 31 31 34 36 35 37 37 38 39 41 43 45 47 48 48 48 46 44 42
12 11 15 14 11 10 11 13 15 18 19 18 23 23 18 17 17 20 22 25 27 27 27 28 29 31 36 37 35 36 36 38 40 42 43 45 46 47 47 46 44 42 39 38
13 9 12 14 15 14 17 18 20 23 25 26 25 26 20 18 19 22 25 27 28 27 28 28 30 36 38 35 34 35 37 39 41 43 45 45 45 45 45 44 42 37 37 34
12 12 10 8 14 17 19 24 25 27 28 27 25 19 17 17 17 18 20 23 26 26 27 29 34 35 35 34 34 35 38 41 43 44 44 44 45 45 43 42 41 39 36 33
8 11 11 6 7 2 16 19 17 19 20 25 24 21 20 20 20 21 22 24 25 25 27 32 34 35 35 33 33 36 39 40 41 42 43 44 44 43 41 42 41 38 35 32
11 11 8 6 9 17 18 19 19 19 21 20 22 21 20 20 19 21 22 24 25 25 30 34 34 33 31 32 34 37 39 40 41 42 43 42 42 41 40 40 39 36 33 31
15 16 16 11 5 6 10 12 11 18 27 20 16 12 17 18 21 18 19 24 27 30 35 30 30 29 31 33 35 37 39 40 41 41 40 40 40 40 39 40 37 34 31 29
12 13 17 20 13 10 16 18 18 12 14 10 13 20 20 22 21 23 21 27 32 37 32 27 27 29 31 34 37 38 39 40 40 40 39 40 40 39 39 39 35 30 28 23
14 9 11 10 9 11 12 15 16 15 14 16 26 25 23 21 23 23 24 31 35 27 25 24 26 29 33 36 38 39 39 40 39 39 39 40 40 39 38 37 32 28 25 22
15 19 14 13 9 16 22 24 20 20 26 28 30 27 25 25 26 27 36 31 33 25 23 23 26 31 34 37 38 38 39 39 40 39 39 40 39 38 37 35 30 27 23 22
18 18 23 24 24 24 24 25 26 29 29 31 29 27 29 25 29 32 34 40 25 21 20 24 29 33 35 36 37 38 39 40 40 40 39 39 39 38 35 32 29 26 22 20
17 22 26 28 27 27 25 26 27 28 29 28 28 31 27 26 30 32 36 21 17 16 21 28 32 34 35 35 36 38 39 39 38 38 38 37 37 36 34 31 29 25 22 20
23 24 26 28 23 26 26 27 27 29 29 29 29 27 26 27 36 28 22 16 13 19 27 31 34 34 35 36 37 37 37 36 36 36 36 36 35 34 32 29 26 24 22 20
Wind_Direction
183 177 163 163 191 214 210 242 265 266 226 222 234 254 269 258 214 219 231 242 253 260 262 261 258 255 264 264 271 284 280 293 324 322 315 310 288 286 287 289 292 296 297 296
155 155 150 156 160 163 225 259 189 187 201 210 233 257 258 229 208 219 234 252 262 263 268 270 270 278 276 268 274 274 282 301 315 311 294 297 303 303 301 302 301 300 298 295
149 140 137 151 153 305 226 175 168 168 169 197 229 226 217 213 215 230 239 248 256 260 266 279 276 258 262 273 284 290 293 292 300 313 331 338 334 319 308 304 305 306 304 301
158 156 178 231 260 249 216 192 168 168 187 173 207 224 227 217 219 222 230 236 242 250 249 277 297 297 294 306 305 296 309 315 309 311 322 333 337 335 326 319 314 312 311 310
157 173 187 229 256 254 218 222 233 246 254 238 219 248 230 221 218 222 220 221 208 204 182 244 294 240 288 331 310 326 321 322 331 332 336 338 336 331 327 323 317 314 313 311
182 192 212 238 237 232 238 229 231 232 234 259 209 226 237 228 237 217 212 207 200 205 238 293 288 244 316 326 329 336 315 327 333 332 333 328 325 325 324 320 316 312 312 311
166 188 218 222 212 218 215 207 200 324 274 217 209 229 250 244 234 222 217 214 212 223 250 251 265 290 306 303 307 310 311 327 330 325 321 320 321 322 320 317 314 314 312 309
175 163 172 196 204 219 229 220 215 216 196 234 205 243 233 258 224 217 222 221 228 233 248 282 288 289 307 306 309 310 313 320 316 316 322 321 320 318 317 316 313 311 309 309
176 165 184 196 209 224 212 223 204 144 117 281 235 266 272 242 200 205 218 226 237 263 284 286 288 297 303 305 303 304 301 307 308 318 321 317 317 315 314 312 308 309 312 315
201 163 188 181 199 219 232 180 174 192 128 274 282 267 241 233 207 219 228 234 255 284 290 289 286 292 290 296 294 293 299 302 310 316 316 313 310 310 312 314 318 319 319 316
222 213 193 191 202 185 168 189 180 162 181 163 282 261 280 246 256 253 240 245 264 272 273 280 279 279 284 291 285 293 293 294 306 313 310 310 313 316 319 321 321 319 316 315
208 208 181 206 221 219 219 224 213 196 216 218 237 273 256 250 250 239 235 255 258 275 274 273 277 280 280 280 281 285 286 306 313 310 314 317 319 321 321 319 316 313 310 312
206 203 165 191 227 222 226 229 231 240 239 226 176 258 288 280 261 236 234 251 262 263 266 276 277 276 281 281 281 289 313 310 311 316 319 321 321 319 317 315 312 313 314 313
212 221 215 208 208 205 225 236 241 242 237 247 253 276 288 290 279 254 252 257 258 268 271 271 272 277 278 281 303 313 309 312 316 320 320 319 317 317 316 315 315 315 315 316
218 229 226 231 235 235 238 243 248 250 261 259 284 284 293 285 277 268 261 262 266 271 273 273 275 279 284 301 308 307 312 316 318 318 316 317 319 318 317 317 319 319 319 319
227 234 232 235 242 249 253 255 258 261 261 264 275 284 295 285 273 272 272 271 271 267 274 277 280 286 302 307 306 310 313 315 316 316 318 319 318 320 322 323 323 320 322 321
232 234 234 242 252 258 266 262 264 267 263 264 267 297 284 289 288 286 283 274 265 271 278 285 293 301 303 307 309 310 314 316 316 317 318 319 323 324 323 323 322 320 319 318
240 242 239 256 248 292 260 271 274 267 261 265 271 283 289 290 283 279 277 267 268 277 287 293 299 304 304 305 309 313 314 315 316 317 320 323 323 322 322 321 319 317 318 319
242 246 241 239 235 271 264 274 276 275 274 271 272 279 283 284 282 286 284 274 272 282 296 298 301 301 303 308 311 313 313 315 318 320 320 321 321 321 320 320 319 318 319 318
248 251 244 246 241 226 281 273 266 270 267 274 271 278 288 285 281 304 281 269 273 285 293 296 298 300 305 309 310 311 315 318 317 317 317 319 322 321 320 321 319 320 319 316
258 255 246 251 248 263 284 274 272 249 284 257 289 304 298 288 290 293 294 288 282 296 295 295 296 303 307 309 311 314 316 315 314 314 317 320 323 323 321 323 322 319 316 314
267 255 249 241 241 268 275 273 272 291 277 280 304 302 302 293 290 291 287 294 290 291 294 291 299 305 309 311 312 313 312 312 312 314 317 320 323 324 322 322 320 317 312 309
255 264 262 254 264 282 296 297 290 285 290 299 301 300 301 292 288 285 294 293 292 290 287 297 304 308 309 310 310 311 311 311 313 314 316 320 322 324 323 321 318 315 310 307
275 277 270 277 284 293 294 295 293 297 296 295 296 291 302 288 285 286 287 291 281 279 296 303 307 310 310 310 310 311 312 313 313 314 316 319 321 323 322 318 315 312 307 303
277 280 284 288 297 298 293 292 290 287 287 288 285 291 290 287 282 280 284 269 273 299 305 308 311 312 310 311 312 313 313 313 314 315 317 318 318 320 319 316 312 310 306 302
290 293 292 296 299 292 293 290 286 286 288 286 287 285 280 281 281 269 266 272 300 308 310 313 313 311 312 313 314 314 314 316 317 318 318 318 317 318 318 316 311 308 306 303